Location: Unspecified
(0.0000°N, 0.0000°E)
Time: 21:39:48
(UTC+00:00)

PAYLOAD G - Pass Details

Date: 05 August 2024
Orbit: 808 x 820 km, 98.7° (Epoch: 12 September)

Event Time Altitude Azimuth Distance (km) Brightness Sun altitude
Rises 05:24:13 0° 26° (NNE) 3,338 ? -10.0°
Reaches altitude 10° 05:26:41 10° 33° (NNE) 2,408 ? -9.4°
Maximum altitude 05:31:42 42° 103° (ESE) 1,150 ? -8.2°
Drops below altitude 10° 05:36:43 10° 173° (S) 2,413 ? -7.0°
Sets 05:39:10 0° 179° (S) 3,345 ? -6.4°
